Navstar 1

operational
NORAD ID: 10684 Int'l Des: 1978-020 Owner: SAMSO Country: US Constellation: GPS
MEOCIRCULAR

关于 Navstar 1

正在加载描述...

实时位置

正在加载3D地球...

即将过境

高度历史

Altitude vs Time

uPlot chart will show altitude changes over time

两行轨道根数

1 10684U 78020A 25275.43755670 .00000023 00000-0 00000-0 0 9999
2 10684 64.1619 60.0581 0080618 217.4621 141.9848 1.98072162331338
Epoch: Oct 2, 2025 • Age: 68 hours

当前状态

高度 20203.2 km
速度 3.89 km/s
星下点 -38.46°S, 148.94°E
发射日期 Feb 22, 1978
运行时间 47.6 years
类型 navigation

技术详情

分类 Payload
质量 409.00 kg
干质量 409.00 kg
总质量 775.00 kg
长度 2.40 m
直径 2.60 m
跨度 5.30 m
形状 Box + 2 Pan
制造商 RWISB
平台类型 GPS
阶段状态 In Orbit
所有者/国家 SAMSO/US

大型星座

Loading constellations...